Location: Cheyres
(46.8153°N, 6.7877°E)
Time: 23:12:47
(UTC+00:00)

FENGYUN 1C DEB - Pass Details

Date: 28 November 2021
Orbit: 843 x 915 km, 99.0° (Epoch: 21 January)

Event Time Altitude Azimuth Distance (km) Brightness Sun altitude
Exits shadow 18:49:40 28° 352° (N) 1,592 ? -30.5°
Drops below altitude 10° 18:52:09 10° 348° (NNW) 2,513 ? -30.9°
Sets 18:54:31 0° 347° (NNW) 3,445 ? -31.3°
